KB1DML-4 Weather Reports


Display with metric or nautical units.
time (UTC)temp
F
wind
direction
speed
MPH
gust
MPH
rain 1hr
in
rain 24hr
in
rain mn
in
humidity
%
barometer
mb
20260507075044 51 293 7.0 12.0 0.00 0.18 0.00 81 1003.0
20260507074524 51 315 6.0 8.0 0.00 0.18 0.00 83 1003.0
20260507074024 51 293 6.0 10.0 0.00 0.18 0.00 82 1002.4
20260507073516 51 315 4.0 12.0 0.00 0.18 0.00 84 1002.4
20260507073016 51 293 4.0 8.0 0.00 0.18 0.00 85 1002.4
20260507072545 51 293 5.0 8.0 0.00 0.18 0.00 84 1002.3
20260507072018 51 315 4.0 5.0 0.00 0.18 0.00 85 1002.3
20260507071524 51 293 3.0 5.0 0.00 0.18 0.00 85 1002.3
20260507071024 51 293 3.0 6.0 0.00 0.18 0.00 85 1002.5
20260507070516 52 293 6.0 9.0 0.00 0.18 0.00 84 1002.5
20260507070124 52 315 4.0 6.0 0.00 0.18 0.00 85 1002.5
20260507065538 52 293 4.0 8.0 0.00 0.18 0.00 84 1002.4
20260507065024 52 293 3.0 6.0 0.00 0.18 0.00 84 1002.4
20260507064524 52 293 5.0 8.0 0.00 0.18 0.00 84 1002.4
20260507064016 52 293 3.0 6.0 0.00 0.18 0.00 84 1002.1
20260507063516 52 293 1.0 4.0 0.00 0.18 0.00 84 1002.1
20260507063016 52 293 4.0 6.0 0.00 0.18 0.00 84 1002.1
20260507062515 52 293 3.0 4.0 0.00 0.18 0.00 83 1002.1
20260507062015 52 293 2.0 4.0 0.00 0.18 0.00 83 1002.1
20260507061536 52 293 2.0 5.0 0.00 0.18 0.00 82 1002.1
20260507061018 52 315 3.0 5.0 0.00 0.18 0.00 82 1002.4
20260507060519 52 315 3.0 6.0 0.00 0.18 0.00 81 1002.4
20260507060104 52 293 4.0 6.0 0.00 0.18 0.00 82 1002.4
20260507055524 52 293 6.0 9.0 0.00 0.18 0.00 83 1002.6
20260507055017 52 293 4.0 6.0 0.00 0.18 0.00 81 1002.6
20260507054516 52 293 6.0 10.0 0.00 0.18 0.00 82 1002.6
20260507054016 52 315 6.0 11.0 0.00 0.18 0.00 82 1002.8
20260507053523 52 315 4.0 8.0 0.00 0.18 0.00 82 1002.8
20260507053023 52 293 4.0 9.0 0.00 0.18 0.00 82 1002.8
20260507052524 53 293 4.0 8.0 0.00 0.18 0.00 83 1002.9
20260507052024 53 315 3.0 6.0 0.00 0.18 0.00 83 1002.9
20260507051524 53 315 2.0 6.0 0.00 0.18 0.00 85 1002.9
20260507051017 53 293 2.0 6.0 0.00 0.18 0.00 86 1002.6
20260507050516 53 315 1.0 4.0 0.00 0.18 0.00 87 1002.6
20260507050024 53 0.0 3.0 0.00 0.18 0.00 87 1002.6
20260507045516 53 293 1.0 4.0 0.00 0.18 0.00 86 1002.4
20260507045016 53 315 4.0 6.0 0.00 0.18 0.00 86 1002.4
20260507044523 53 293 5.0 8.0 0.00 0.18 0.00 85 1002.4
20260507044017 54 293 4.0 8.0 0.00 0.18 0.00 85 1002.5
20260507043518 54 293 4.0 8.0 0.00 0.18 0.00 85 1002.5
20260507043024 54 293 5.0 8.0 0.00 0.18 0.00 85 1002.5
20260507042517 54 293 6.0 10.0 0.00 0.18 0.00 85 1002.9
20260507042024 54 293 7.0 11.0 0.00 0.18 0.00 87 1002.9
20260507041516 54 293 7.0 10.0 0.00 0.18 0.00 88 1002.9
20260507041057 54 293 8.0 12.0 0.00 0.18 0.00 88 1002.5
20260507040524 55 293 6.0 10.0 0.00 0.18 0.00 88 1002.5
20260507040036 55 293 6.0 12.0 0.00 0.18 0.18 88 1002.5
20260507035518 55 293 5.0 10.0 0.00 0.18 0.18 88 1002.2
20260507035018 56 315 5.0 10.0 0.00 0.18 0.18 88 1002.2
20260507034516 57 293 5.0 9.0 0.00 0.18 0.18 89 1002.2
20260507034016 57 293 8.0 14.0 0.00 0.18 0.18 89 1001.9
20260507033524 58 293 9.0 12.0 0.00 0.18 0.18 89 1001.9
20260507033024 58 293 8.0 13.0 0.00 0.18 0.18 88 1001.9
20260507032544 59 293 8.0 12.0 0.00 0.18 0.18 89 1001.7
20260507032044 59 293 9.0 14.0 0.00 0.18 0.18 89 1001.7
20260507031538 59 315 10.0 15.0 0.00 0.18 0.18 90 1001.7
20260507031024 59 315 7.0 14.0 0.00 0.18 0.18 92 1001.8
20260507030524 59 315 8.0 15.0 0.00 0.18 0.18 92 1001.8
20260507030018 59 270 2.0 6.0 0.00 0.18 0.18 94 1001.8
20260507025524 59 270 1.0 2.0 0.00 0.18 0.18 94 1001.4
20260507025036 59 203 1.0 2.0 0.00 0.18 0.18 94 1001.4
20260507024544 59 293 1.0 3.0 0.00 0.18 0.18 94 1001.4
20260507024024 59 225 1.0 2.0 0.00 0.18 0.18 94 1001.4
20260507023518 59 225 1.0 2.0 0.00 0.18 0.18 94 1001.4
20260507023024 59 203 1.0 2.0 0.00 0.18 0.18 94 1001.4
20260507022518 59 225 1.0 2.0 0.00 0.18 0.18 94 1001.1
20260507022018 59 0.0 2.0 0.00 0.18 0.18 94 1001.1
20260507021516 59 158 1.0 2.0 0.00 0.18 0.18 94 1001.1
20260507021024 59 158 1.0 4.0 0.00 0.18 0.18 94 1001.2
20260507020524 59 203 1.0 2.0 0.00 0.18 0.18 94 1001.2
20260507020016 59 158 1.0 2.0 0.00 0.18 0.18 94 1001.2
20260507015516 59 158 1.0 3.0 0.00 0.18 0.18 94 1001.3
20260507015044 59 158 1.0 4.0 0.00 0.18 0.18 94 1001.3
20260507014524 59 158 1.0 3.0 0.00 0.18 0.18 94 1001.3
20260507014018 59 158 2.0 4.0 0.00 0.18 0.18 94 1001.3
20260507013538 59 203 1.0 4.0 0.00 0.18 0.18 94 1001.3
20260507013024 59 158 2.0 6.0 0.00 0.18 0.18 94 1001.3
20260507012537 59 158 1.0 3.0 0.00 0.18 0.18 94 1001.3
20260507012018 59 158 1.0 4.0 0.00 0.18 0.18 94 1001.3
20260507011518 59 158 1.0 3.0 0.00 0.18 0.18 94 1001.3
20260507011044 59 158 1.0 2.0 0.00 0.18 0.18 94 1001.2
20260507010516 59 158 1.0 3.0 0.00 0.18 0.18 94 1001.2
20260507010016 59 158 2.0 5.0 0.00 0.18 0.18 94 1001.2
20260507005524 59 158 2.0 4.0 0.00 0.18 0.18 94 1001.2
20260507005016 59 180 2.0 5.0 0.00 0.18 0.18 94 1001.2
20260507004524 59 158 2.0 6.0 0.00 0.18 0.18 94 1001.2
20260507004024 59 180 3.0 5.0 0.00 0.18 0.18 94 1000.9
20260507003524 59 158 2.0 5.0 0.00 0.18 0.18 94 1000.9
20260507003018 59 158 2.0 5.0 0.00 0.18 0.18 94 1000.9
20260507002524 59 158 1.0 4.0 0.01 0.18 0.18 94 1000.9
20260507002024 59 158 2.0 5.0 0.01 0.18 0.18 94 1000.9
20260507001516 59 158 2.0 6.0 0.03 0.18 0.18 94 1000.9
20260507001016 59 158 3.0 5.0 0.05 0.18 0.18 94 1000.8
20260507000518 59 158 2.0 5.0 0.05 0.18 0.18 94 1000.8
20260507000016 59 158 3.0 7.0 0.05 0.18 0.18 94 1000.8
20260506235524 59 158 3.0 6.0 0.06 0.18 0.18 94 1000.7
20260506235024 59 158 2.0 4.0 0.07 0.18 0.18 94 1000.7
20260506234524 59 158 2.0 4.0 0.08 0.18 0.18 94 1000.7
20260506234044 60 158 2.0 3.0 0.09 0.18 0.18 94 1000.7
20260506233524 60 158 2.0 4.0 0.09 0.18 0.18 94 1000.7
20260506233024 60 158 2.0 5.0 0.09 0.18 0.18 94 1000.7
20260506232516 60 158 2.0 4.0 0.08 0.17 0.17 94 1000.8
20260506232016 60 158 2.0 4.0 0.08 0.17 0.17 93 1000.8
20260506231516 60 158 2.0 3.0 0.06 0.15 0.15 93 1000.8
20260506231018 60 158 2.0 4.0 0.05 0.13 0.13 93 1000.8
20260506230524 60 158 2.0 4.0 0.05 0.13 0.13 93 1000.8
20260506230038 60 158 2.0 3.0 0.05 0.13 0.13 93 1000.8
20260506225518 60 158 2.0 5.0 0.06 0.12 0.12 93 1000.8
20260506225044 60 158 2.0 4.0 0.06 0.11 0.11 93 1000.8
20260506224524 60 158 2.0 4.0 0.05 0.10 0.10 93 1000.8
20260506224018 60 158 2.0 4.0 0.04 0.09 0.09 93 1000.8
20260506223516 60 158 3.0 6.0 0.04 0.09 0.09 92 1000.8
20260506223044 60 158 2.0 6.0 0.04 0.09 0.09 92 1000.8
20260506222536 60 158 2.0 4.0 0.04 0.09 0.09 92 1000.9
20260506222018 60 158 3.0 6.0 0.04 0.09 0.09 92 1000.9
20260506221544 60 158 3.0 5.0 0.04 0.09 0.09 92 1000.9
20260506221018 60 158 3.0 6.0 0.03 0.08 0.08 92 1001.1
20260506220518 60 158 2.0 4.0 0.03 0.08 0.08 91 1001.1
20260506220016 60 158 3.0 6.0 0.03 0.08 0.08 91 1001.1
20260506215518 60 158 3.0 6.0 0.01 0.06 0.06 91 1000.8
20260506215018 60 158 2.0 4.0 0.01 0.05 0.05 91 1000.8
20260506214518 60 158 3.0 6.0 0.01 0.05 0.05 91 1000.8
20260506214024 60 158 3.0 6.0 0.01 0.05 0.05 90 1001.2
20260506213515 60 158 4.0 8.0 0.01 0.05 0.05 90 1001.2
20260506213036 60 158 4.0 7.0 0.01 0.05 0.05 91 1001.2
20260506212524 60 158 3.0 6.0 0.01 0.05 0.05 91 1001.3
20260506212024 60 158 3.0 5.0 0.02 0.05 0.05 91 1001.3
20260506211518 60 158 2.0 5.0 0.02 0.05 0.05 91 1001.3
20260506211016 60 158 3.0 5.0 0.02 0.05 0.05 90 1001.5
20260506210524 61 158 4.0 7.0 0.02 0.05 0.05 90 1001.5
20260506210038 61 158 3.0 7.0 0.03 0.05 0.05 90 1001.5
20260506205518 61 158 3.0 6.0 0.03 0.05 0.05 90 1001.6
20260506205024 61 158 4.0 10.0 0.02 0.04 0.04 89 1001.6
20260506204524 61 158 3.0 8.0 0.02 0.04 0.04 90 1001.6
20260506204015 62 158 3.0 6.0 0.02 0.04 0.04 90 1001.7
20260506203516 62 158 3.0 7.0 0.02 0.04 0.04 89 1001.7
20260506203017 62 158 2.0 4.0 0.02 0.04 0.04 89 1001.7
20260506202524 62 158 2.0 5.0 0.02 0.04 0.04 89 1001.5
20260506202038 62 158 2.0 5.0 0.02 0.03 0.03 88 1001.5
20260506201516 63 158 3.0 3.0 0.02 0.03 0.03 87 1001.5
20260506201025 63 158 1.0 3.0 0.02 0.03 0.03 87 1001.7
20260506200545 63 158 2.0 4.0 0.02 0.03 0.03 86 1001.7
20260506200019 63 158 1.0 4.0 0.02 0.02 0.02 86 1001.7
20260506195525 63 180 2.0 5.0 0.02 0.02 0.02 86 1001.6
20260506195017 63 158 2.0 5.0 0.02 0.02 0.02 86 1001.6
20260506194516 63 158 2.0 3.0 0.02 0.02 0.02 86 1001.6
20260506194037 64 158 2.0 4.0 0.02 0.02 0.02 85 1001.7
20260506193517 64 158 2.0 4.0 0.02 0.02 0.02 84 1001.7
20260506193045 64 158 1.0 3.0 0.02 0.02 0.02 83 1001.7
20260506192556 64 158 1.0 4.0 0.02 0.02 0.02 82 1001.8
20260506192018 65 158 2.0 4.0 0.01 0.01 0.01 80 1001.8
20260506191525 65 158 1.0 3.0 0.01 0.01 0.01 79 1001.8
20260506191044 66 203 1.0 5.0 0.01 0.01 0.01 78 1001.9
20260506190556 66 225 1.0 4.0 0.01 0.01 0.01 77 1001.9
20260506190015 67 225 2.0 6.0 0.00 0.00 0.00 75 1001.9
20260506185516 67 203 2.0 6.0 0.00 0.00 0.00 74 1001.9
20260506185016 68 158 1.0 3.0 0.00 0.00 0.00 73 1001.9
20260506184537 68 203 2.0 6.0 0.00 0.00 0.00 71 1001.9
20260506184018 68 225 2.0 6.0 0.00 0.00 0.00 70 1001.9
20260506183517 69 203 1.0 3.0 0.00 0.00 0.00 69 1001.9
20260506183036 69 180 2.0 6.0 0.00 0.00 0.00 68 1001.9
20260506182518 70 225 2.0 7.0 0.00 0.00 0.00 66 1001.9
20260506182045 70 203 2.0 4.0 0.00 0.00 0.00 64 1001.9
20260506181524 70 203 1.0 3.0 0.00 0.00 0.00 65 1001.9
20260506181018 71 203 3.0 8.0 0.00 0.00 0.00 63 1002.0
20260506180544 72 203 4.0 7.0 0.00 0.00 0.00 60 1002.0
20260506180018 72 203 3.0 8.0 0.00 0.00 0.00 58 1002.0
20260506175524 72 203 4.0 11.0 0.00 0.00 0.00 58 1001.8
20260506175025 72 180 5.0 10.0 0.00 0.00 0.00 57 1001.8
20260506174518 72 158 5.0 15.0 0.00 0.00 0.00 57 1001.8
20260506174016 72 158 5.0 15.0 0.00 0.00 0.00 58 1001.9
20260506173516 72 158 3.0 9.0 0.00 0.00 0.00 59 1001.9
20260506173018 72 180 2.0 6.0 0.00 0.00 0.00 59 1001.9
20260506172525 72 203 4.0 9.0 0.00 0.00 0.00 59 1002.0
20260506172025 72 203 3.0 10.0 0.00 0.00 0.00 59 1002.0
20260506171524 72 203 1.0 3.0 0.00 0.00 0.00 60 1002.0
20260506171018 72 158 2.0 5.0 0.00 0.00 0.00 60 1002.4
20260506170545 72 203 2.0 4.0 0.00 0.00 0.00 61 1002.4
20260506170019 72 158 3.0 7.0 0.00 0.00 0.00 61 1002.4
20260506165525 72 203 3.0 5.0 0.00 0.00 0.00 61 1002.4
20260506165016 72 158 3.0 6.0 0.00 0.00 0.00 61 1002.4
20260506164516 71 158 3.0 7.0 0.00 0.00 0.00 61 1002.4
20260506164016 71 158 4.0 6.0 0.00 0.00 0.00 61 1002.6
20260506163536 71 180 3.0 5.0 0.00 0.00 0.00 61 1002.6
20260506163016 71 158 2.0 5.0 0.00 0.00 0.00 62 1002.6
20260506162518 71 158 2.0 5.0 0.00 0.00 0.00 62 1002.9
20260506162018 71 158 3.0 7.0 0.00 0.00 0.00 62 1002.9
20260506161524 71 158 3.0 7.0 0.00 0.00 0.00 63 1002.9
20260506161017 71 158 2.0 4.0 0.00 0.00 0.00 63 1003.3
20260506160518 71 158 2.0 6.0 0.00 0.00 0.00 64 1003.3
20260506160105 71 158 2.0 4.0 0.00 0.00 0.00 64 1003.3
20260506155536 70 158 2.0 3.0 0.00 0.00 0.00 64 1003.6
20260506155016 70 158 2.0 5.0 0.00 0.00 0.00 64 1003.6
20260506154525 70 203 1.0 5.0 0.00 0.00 0.00 64 1003.6
20260506154024 70 158 2.0 5.0 0.00 0.00 0.00 64 1003.9
20260506153544 70 203 3.0 6.0 0.00 0.00 0.00 64 1004.0
20260506153018 70 158 4.0 7.0 0.00 0.00 0.00 64 1004.0
20260506152518 70 158 4.0 7.0 0.00 0.00 0.00 64 1004.0
20260506152016 70 180 5.0 10.0 0.00 0.00 0.00 64 1004.0
20260506151518 70 158 5.0 9.0 0.00 0.00 0.00 64 1004.0
20260506151024 71 158 4.0 9.0 0.00 0.00 0.00 64 1004.0
20260506150518 70 158 4.0 10.0 0.00 0.00 0.00 65 1004.0
20260506150056 70 180 4.0 7.0 0.00 0.00 0.00 65 1004.0
20260506145524 70 158 1.0 6.0 0.00 0.00 0.00 66 1004.0
20260506145038 70 180 2.0 5.0 0.00 0.00 0.00 66 1004.0
20260506144517 70 158 2.0 4.0 0.00 0.00 0.00 67 1004.0
20260506144024 69 225 2.0 5.0 0.00 0.00 0.00 67 1004.0
20260506143518 69 158 3.0 8.0 0.00 0.00 0.00 67 1004.0
20260506143018 69 158 3.0 6.0 0.00 0.00 0.00 68 1004.0
20260506142524 69 203 2.0 5.0 0.00 0.00 0.00 68 1003.7
20260506142018 69 180 3.0 6.0 0.00 0.00 0.00 68 1003.7
20260506141545 69 158 2.0 5.0 0.00 0.00 0.00 69 1003.7
20260506141016 68 158 4.0 9.0 0.00 0.00 0.00 70 1003.9
20260506140516 68 158 2.0 6.0 0.00 0.00 0.00 71 1003.9
20260506140024 67 158 3.0 5.0 0.00 0.00 0.00 72 1003.9
20260506135517 67 158 3.0 8.0 0.00 0.00 0.00 72 1004.2
20260506135024 66 158 3.0 7.0 0.00 0.00 0.00 73 1004.2
20260506134525 66 203 2.0 6.0 0.00 0.00 0.00 73 1004.2
20260506134044 66 203 2.0 6.0 0.00 0.00 0.00 73 1004.5
20260506133524 66 158 3.0 6.0 0.00 0.00 0.00 74 1004.5
20260506133018 66 158 1.0 4.0 0.00 0.00 0.00 74 1004.5
20260506132524 65 203 2.0 6.0 0.00 0.00 0.00 75 1004.5
20260506132016 65 180 2.0 4.0 0.00 0.00 0.00 75 1004.5
20260506131516 65 158 3.0 7.0 0.00 0.00 0.00 75 1004.5
20260506131024 65 158 3.0 7.0 0.00 0.00 0.00 75 1004.5
20260506130524 65 180 4.0 8.0 0.00 0.00 0.00 75 1004.5
20260506130018 65 180 3.0 7.0 0.00 0.00 0.00 75 1004.5
20260506125524 65 158 4.0 7.0 0.00 0.00 0.00 74 1004.5
20260506125024 65 158 3.0 5.0 0.00 0.00 0.00 75 1004.5
20260506124518 65 158 3.0 8.0 0.00 0.00 0.00 75 1004.5
20260506124018 65 158 3.0 8.0 0.00 0.00 0.00 75 1004.4
20260506123518 64 158 4.0 7.0 0.00 0.00 0.00 76 1004.4
20260506123016 64 158 2.0 5.0 0.00 0.00 0.00 76 1004.4
20260506122516 64 203 2.0 4.0 0.00 0.00 0.00 76 1004.5
20260506122036 64 158 3.0 8.0 0.00 0.00 0.00 76 1004.5
20260506121524 64 203 3.0 5.0 0.00 0.00 0.00 75 1004.5
20260506121024 64 225 1.0 3.0 0.00 0.00 0.00 76 1004.7
20260506120524 64 158 2.0 6.0 0.00 0.00 0.00 77 1004.7
20260506120024 63 158 3.0 6.0 0.00 0.00 0.00 77 1004.7
20260506115517 63 158 2.0 5.0 0.00 0.00 0.00 77 1004.8
20260506115024 63 158 2.0 5.0 0.00 0.00 0.00 77 1004.8
20260506114604 63 158 2.0 4.0 0.00 0.00 0.00 78 1004.8
20260506114025 63 158 2.0 6.0 0.00 0.00 0.00 78 1005.0
20260506113524 62 180 2.0 4.0 0.00 0.00 0.00 78 1005.0
20260506113016 62 158 2.0 5.0 0.00 0.00 0.00 78 1005.0
20260506112516 62 158 2.0 4.0 0.00 0.00 0.00 78 1004.9
20260506112024 62 158 2.0 4.0 0.00 0.00 0.00 78 1005.0
20260506111518 62 158 2.0 6.0 0.00 0.00 0.00 78 1005.0
20260506111018 62 158 2.0 6.0 0.00 0.00 0.00 78 1005.0
20260506110537 62 158 3.0 6.0 0.00 0.00 0.00 79 1005.0
20260506110024 61 158 2.0 4.0 0.00 0.00 0.00 79 1005.0
20260506105518 61 158 2.0 5.0 0.00 0.00 0.00 79 1005.1
20260506105024 61 158 2.0 4.0 0.00 0.00 0.00 79 1005.1
20260506104518 61 158 2.0 4.0 0.00 0.00 0.00 79 1005.1
20260506104024 61 158 2.0 5.0 0.00 0.00 0.00 79 1005.0
20260506103516 61 158 3.0 6.0 0.00 0.00 0.00 79 1005.0
20260506103016 61 158 3.0 4.0 0.00 0.00 0.00 79 1005.0
20260506102524 61 158 3.0 4.0 0.00 0.00 0.00 79 1005.1
20260506102018 61 158 2.0 4.0 0.00 0.00 0.00 79 1005.1
20260506101524 61 158 2.0 4.0 0.00 0.00 0.00 79 1005.1
20260506101024 61 158 2.0 4.0 0.00 0.00 0.00 79 1005.0
20260506100518 61 158 2.0 5.0 0.00 0.00 0.00 79 1005.0
20260506100018 61 158 3.0 6.0 0.00 0.00 0.00 78 1005.0
20260506095538 61 158 2.0 4.0 0.00 0.00 0.00 78 1004.8
20260506095024 61 158 2.0 4.0 0.00 0.00 0.00 78 1004.8
20260506094556 61 158 2.0 6.0 0.00 0.00 0.00 78 1004.8
20260506094016 61 158 2.0 3.0 0.00 0.00 0.00 78 1005.1
20260506093518 61 158 2.0 4.0 0.00 0.00 0.00 78 1005.1
20260506093037 61 158 2.0 3.0 0.00 0.00 0.00 78 1005.1
20260506092524 61 158 2.0 5.0 0.00 0.00 0.00 77 1005.0
20260506092018 62 158 3.0 6.0 0.00 0.00 0.00 77 1005.0
20260506091604 61 158 3.0 7.0 0.00 0.00 0.00 77 1005.0
20260506091024 62 158 2.0 4.0 0.00 0.00 0.00 77 1005.0
20260506090516 62 158 2.0 5.0 0.00 0.00 0.00 76 1005.0
20260506090024 62 158 2.0 4.0 0.00 0.00 0.00 76 1005.0
20260506085524 62 158 2.0 4.0 0.00 0.00 0.00 76 1005.0
20260506085016 62 158 3.0 5.0 0.00 0.00 0.00 76 1005.0
20260506084536 62 158 2.0 3.0 0.00 0.00 0.00 75 1005.0
20260506084024 62 158 2.0 4.0 0.00 0.00 0.00 75 1005.0
20260506083524 63 180 3.0 5.0 0.00 0.00 0.00 75 1005.0
20260506083024 63 158 2.0 4.0 0.00 0.00 0.00 75 1005.0
20260506082517 63 158 3.0 4.0 0.00 0.00 0.00 74 1005.0
20260506082024 63 158 2.0 4.0 0.00 0.00 0.00 74 1005.0
20260506081517 63 180 2.0 6.0 0.00 0.00 0.00 74 1005.0
20260506081024 63 158 3.0 6.0 0.00 0.00 0.00 73 1004.8
20260506080524 63 158 2.0 5.0 0.00 0.00 0.00 73 1004.8